COSMOS 2428

Last updated on Thu Nov 21 2024 00:02:13 GMT+0000 (Coordinated Universal Time)

1 31792U 07029A 24325.39673275 .00000467 00000+0 27681-3 0 9991 2 31792 70.9385 118.9071 0008137 205.1082 154.9644 14.12801482897109
UTC large
Height (km)
Speed (km/s)
/
Latitude / Longitude
Inclination (degrees)
Orbital Period (minutes)
Azimuth
Elevation
Range (km)
Doppler Factor

Next 0 passes for location: London (51.5072 / 0.1276)

Sorry there are no passes over London.